Location: Biltmore Gardens
(41.6070°N, 83.4666°W)
Time: 10:40:41
(UTC+00:00)

Cosmos 2344 - Pass Details

Date: 25 October 2020
Orbit: 1246 x 2997 km, 63.3° (Epoch: 25 November)

Event Time Altitude Azimuth Distance (km) Brightness Sun altitude
Exits shadow 09:36:30 54° 282° (WNW) 1,487 3.5 -27.0°
Maximum altitude 09:37:28 58° 312° (NW) 1,441 3.6 -26.9°
Drops below altitude 10° 09:45:18 10° 31° (NNE) 3,457 6.3 -25.4°
Sets 09:48:28 0° 36° (NE) 4,586 7.1 -24.8°
